Tracking 21473 objects as of 27-Sep-2020
HD Live streaming from Space Station
objects crossing your sky now

GALILEO 20 (2C6)

Track GALILEO 20 (2C6) now!
GALILEO 20 (2C6) is classified as:


NORAD ID: 43056
Int'l Code: 2017-079B
Perigee: 23,211.1 km
Apogee: 23,247.6 km
Inclination: 56.2 °
Period: 844.7 minutes
Semi major axis: 29600 km
RCS: Unknown
Launch date: December 12, 2017
Source: European Space Agency (ESA)
Launch site: FRENCH GUIANA (FRGUI)
aabbcc
Your satellite tracking list
Your tracking list is empty




NASA's NSSDC Master Catalog

Two Line Element Set (TLE):
1 43056U 17079B   20270.89695566 +.00000010 +00000-0 +00000-0 0  9998
2 43056 056.1931 279.0113 0006167 267.0519 092.9063 01.70474104017384
Source of the keplerian elements: AFSPC